Flag for Austria Weather past 2 weeks in Knittelfeld, Styria, Austria

Now
41 °F

Partly sunny.


Feels Like: 38 °F
Forecast: 38 / 54 °F
Wind: 5 mph from South

Location: Zeltweg

Current Time: Dec 18, 2014 at 4:45:05 PM

Latest Report: Dec 18, 2014 at 3:50 PM


Visibility: 25 mi

Pressure: 30.04 "Hg

Humidity: 81%

Dew point: 36 °F

Location of KnittelfeldLocation

Historic Weather in Knittelfeld — Graph

°F

Knittelfeld temperature yesterday

Maximum temperature yesterday: 34 °F (at 4:50 AM)
Minimum temperature yesterday: 32 °F (at 3:20 PM)
Average temperature yesterday: 33 °F

Past Weeks' High & Low Weather Summary

 TemperatureHumidityPressure
High48 °F (Dec 13, 1:50 PM)100% (Dec 3, 5:50 PM)30.30 "Hg (Dec 3, 5:50 PM)
Low16 °F (Dec 10, 7:20 AM)50% (Dec 13, 12:50 PM)29.86 "Hg (Dec 16, 2:50 PM)
Average33 °F89%30.05 "Hg
* Reported Dec 3 3:20 PM — Dec 18 3:50 PM, Knittelfeld, Weather by CustomWeather, © 2014

Note: Actual official high and low records may vary slightly from our data, if they occured in-between our weather recording intervals... More about our weather records

Advertising

Knittelfeld weather history for previous 24 hours

 ConditionsComfort  
Time TempWeatherWind HumidityBarometerVisibility
3:50 PM
Dec 18
41 °FPartly sunny.5 mph81%30.04 "Hg25 mi
2:50 PM41 °FScattered clouds.3 mph81%30.04 "Hg25 mi
1:50 PM43 °FScattered clouds.6 mph81%30.04 "Hg25 mi
12:50 PM41 °FScattered clouds.2 mph100%30.07 "Hg19 mi
11:50 AM39 °FPartly sunny.2 mph87%30.07 "Hg19 mi
10:50 AM37 °FPartly sunny.1 mph93%30.07 "Hg16 mi
9:50 AM34 °FChilly.1 mph100%30.07 "Hg6 mi
8:50 AM30 °FScattered clouds.1 mph100%30.04 "Hg1 mi
7:50 AM28 °FFog.2 mph100%30.01 "Hg0 mi
6:50 AM30 °FFog.2 mph100%29.98 "Hg0 mi
5:50 AM28 °FFog.2 mph100%29.95 "Hg1 mi
4:50 AM30 °FFog.2 mph100%29.92 "Hg1 mi
9:50 PM
Dec 17
32 °FIce fog.2 mph100%29.89 "Hg2 mi
8:50 PM32 °FLight rain. Ice fog.2 mph100%29.89 "Hg2 mi
7:50 PM32 °FIce fog.1 mph100%29.89 "Hg1 mi
6:50 PM32 °FIce fog.2 mph100%29.89 "Hg1 mi
5:50 PM32 °FFog.2 mph100%29.86 "Hg0 mi
4:50 PM32 °FFog.1 mph100%29.86 "Hg0 mi
4:20 PM32 °FFog.1 mph100%29.86 "Hg0 mi
Weather by CustomWeather, © 2014

See weather overviewHow to use our weather pages